Fairbanks, AK

5:34 PM AKST on February 24, 2017 (GMT -0900)
Fairbanks International

Weather History for PAFA - November, 2013

Change the Weather History Date:

Saturday, November 9, 2013

  Actual Average Record
Temperature  
Mean Temperature 18 °F 5 °F  
Max Temperature 25 °F 13 °F 45 °F (1997)
Min Temperature 11 °F -3 °F -39 °F (1989)
Degree Days  
Heating Degree Days 47 60  
Month to date heating degree days 435 515  
Since 1 July heating degree days 2210 2774  
Cooling Degree Days 0 0  
Month to date cooling degree days 0 0  
Year to date cooling degree days 226 61  
Moisture  
Dew Point 15 °F    
Average Humidity 75    
Maximum Humidity 85    
Minimum Humidity 47    
Precipitation  
Precipitation 0.15 in 0.03 in 0.25 in (1994)
Month to date precipitation 0.23 0.21  
Year to date precipitation 8.36 9.71  
Snow  
Snow 1.50 in 0.40 in 7.20 in (1936)
Month to date snowfall 2.8 3.9  
Since 1 July snowfall 4.2 16.5  
Since 1 September snowfall 4.2 16.5  
Snow Depth 3.00 in    
Sea Level Pressure  
Sea Level Pressure 29.94 in    
Wind  
Wind Speed 3 mph (ENE)    
Max Wind Speed 7 mph    
Max Gust Speed -    
Visibility 6 miles    
Events Snow    
T = Trace of Precipitation, MM = Missing Value Source: NWS Daily Summary

Daily Weather History Graph

Daily Weather History Graph

Search for Another Location

Airport or City:

Trip Planner

Search our weather history database for the weather conditions in past years. The results will help you decide how hot, cold, wet, or windy it might be!

Date:

Astronomy

Nov. 09, 2013 Rise Set
Actual Time 9:07 AM AKST 4:02 PM AKST
Civil Twilight 8:08 AM AKST 5:01 PM AKST
Nautical Twilight 7:07 AM AKST 6:01 PM AKST
Astronomical Twilight 6:10 AM AKST 6:58 PM AKST
Moon 2:19 PM AKST (11/9) 11:23 PM AKST (11/9)
Length of Visible Light 8h 52m
Length of Day
6h 54m
Waxing Crescent, 46% of the Moon is Illuminated
Nov 9
Waxing Crescent
Nov 9
First Quarter
Nov 17
Full
Nov 25
Last Quarter
Dec 2
New

Hourly Weather History & Observations

Time (AKST) Temp. Windchill Dew Point Humidity Pressure Visibility Wind Dir Wind Speed Gust Speed Precip Events Conditions
12:53 AM 15.1 °F 5.2 °F 10.0 °F 80% 30.12 in 10.0 mi NNE 6.9 mph - N/A   Mostly Cloudy
1:53 AM 18.0 °F 12.7 °F 12.9 °F 81% 30.11 in 10.0 mi ENE 3.5 mph - N/A   Mostly Cloudy
3:53 AM 19.9 °F - 12.9 °F 74% 30.10 in 10.0 mi Calm Calm - N/A   Overcast
4:53 AM 19.9 °F 14.9 °F 12.9 °F 74% 30.09 in 10.0 mi ENE 3.5 mph - N/A Snow Light Snow
5:19 AM 19.9 °F - 14.0 °F 78% 30.04 in 2.5 mi Calm Calm - N/A Snow Light Snow
5:27 AM 19.9 °F - 14.0 °F 78% 30.04 in 1.0 mi Calm Calm - N/A Snow Light Snow
5:53 AM 19.9 °F 13.4 °F 15.1 °F 81% 30.08 in 1.0 mi ESE 4.6 mph - N/A Snow Light Snow
6:53 AM 19.9 °F 12.1 °F 15.1 °F 81% 30.06 in 1.5 mi North 5.8 mph - N/A Snow Light Snow
7:09 AM 19.9 °F 14.9 °F 16.0 °F 85% 30.03 in 2.0 mi North 3.5 mph - N/A Snow Light Snow
7:53 AM 19.9 °F - 16.0 °F 85% 30.06 in 2.0 mi Calm Calm - N/A Snow Light Snow
8:00 AM 19.9 °F 14.9 °F 16.0 °F 85% 30.02 in 1.8 mi NNE 3.5 mph - N/A Snow Light Snow
8:53 AM 19.9 °F - 16.0 °F 85% 30.04 in 1.8 mi Calm Calm - N/A Snow Light Snow
9:31 AM 21.0 °F 16.2 °F 16.0 °F 81% 30.00 in 4.0 mi Variable 3.5 mph - N/A Snow Light Snow
9:53 AM 21.0 °F 16.2 °F 15.1 °F 78% 30.03 in 10.0 mi East 3.5 mph - N/A Snow Light Snow
10:53 AM 21.9 °F 17.2 °F 15.1 °F 75% 30.01 in 10.0 mi NE 3.5 mph - N/A Snow Light Snow
11:53 AM 21.9 °F 14.5 °F 12.9 °F 68% 29.99 in 10.0 mi SE 5.8 mph - N/A   Overcast
12:53 PM 23.0 °F 15.8 °F 15.1 °F 72% 29.97 in 10.0 mi NW 5.8 mph - N/A   Overcast
1:53 PM 24.1 °F - 15.1 °F 69% 29.95 in 10.0 mi Calm Calm - N/A   Overcast
2:53 PM 24.1 °F 18.2 °F 12.0 °F 60% 29.92 in 10.0 mi SE 4.6 mph - N/A   Overcast
3:53 PM 24.1 °F 19.7 °F 14.0 °F 65% 29.88 in 10.0 mi ESE 3.5 mph - N/A Snow Light Snow
4:53 PM 23.0 °F - 16.0 °F 74% 29.84 in 10.0 mi Calm Calm - N/A   Mostly Cloudy
5:53 PM 24.1 °F 19.7 °F 15.1 °F 69% 29.83 in 4.0 mi ESE 3.5 mph - N/A Snow Light Snow
6:01 PM 24.1 °F 18.2 °F 16.0 °F 71% 29.79 in 2.5 mi East 4.6 mph - N/A Snow Light Snow
6:21 PM 23.0 °F 15.8 °F 17.1 °F 78% 29.78 in 1.5 mi ENE 5.8 mph - N/A Snow Light Snow
6:35 PM 23.0 °F - 18.0 °F 81% 29.79 in 2.0 mi Calm Calm - N/A Snow Light Snow
6:53 PM 23.0 °F 18.4 °F 17.1 °F 78% 29.82 in 2.5 mi SE 3.5 mph - N/A Snow Light Snow
7:53 PM 24.1 °F 19.7 °F 18.0 °F 77% 29.80 in 2.0 mi North 3.5 mph - N/A Snow Light Snow
7:57 PM 24.1 °F 19.7 °F 18.0 °F 77% 29.77 in 3.0 mi North 3.5 mph - N/A Snow Light Snow
8:53 PM 24.1 °F 19.7 °F 18.0 °F 77% 29.78 in 6.0 mi North 3.5 mph - N/A Snow Light Snow
9:53 PM 25.0 °F - 17.1 °F 72% 29.77 in 6.0 mi Calm Calm - N/A Snow Light Snow
10:53 PM 25.0 °F - 18.0 °F 75% 29.76 in 6.0 mi Calm Calm - N/A Snow Light Snow
11:43 PM 25.0 °F - 18.0 °F 75% 29.74 in 2.0 mi Calm Calm - N/A Snow Light Snow
11:53 PM 25.0 °F - 19.0 °F 78% 29.76 in 2.0 mi Calm Calm - N/A Snow Light Snow